TimeCDT,TemperatureF,Dew PointF,Humidity,Sea Level PressureIn,VisibilityMPH,Wind Direction,Wind SpeedMPH,Gust SpeedMPH,PrecipitationIn,Events,Conditions,WindDirDegrees,DateUTC
12:15 AM,26.6,23.0,86,30.25,10.0,East,5.8,-,N/A,,Overcast,100,2012-10-28 05:15:00
12:35 AM,26.6,23.0,86,30.24,10.0,East,5.8,-,N/A,,Overcast,100,2012-10-28 05:35:00
12:55 AM,26.6,23.0,86,30.24,10.0,East,5.8,-,N/A,,Overcast,100,2012-10-28 05:55:00
1:15 AM,26.6,23.0,86,30.24,10.0,East,5.8,-,N/A,,Overcast,100,2012-10-28 06:15:00
1:35 AM,26.6,23.0,86,30.24,10.0,East,3.5,-,N/A,,Overcast,100,2012-10-28 06:35:00
1:55 AM,26.6,23.0,86,30.24,10.0,East,4.6,-,N/A,,Overcast,100,2012-10-28 06:55:00
2:15 AM,26.6,23.0,86,30.24,10.0,East,3.5,-,N/A,,Overcast,80,2012-10-28 07:15:00
2:35 AM,26.6,23.0,86,30.24,10.0,ENE,3.5,-,N/A,,Overcast,70,2012-10-28 07:35:00
2:55 AM,26.6,23.0,86,30.24,10.0,East,3.5,-,N/A,,Overcast,80,2012-10-28 07:55:00
3:15 AM,26.6,23.0,86,30.23,10.0,ENE,4.6,-,N/A,,Overcast,60,2012-10-28 08:15:00
3:35 AM,26.6,23.0,86,30.23,10.0,Calm,Calm,-,N/A,,Overcast,0,2012-10-28 08:35:00
3:55 AM,26.6,23.0,86,30.23,10.0,ENE,4.6,-,N/A,,Overcast,70,2012-10-28 08:55:00
4:15 AM,26.6,23.0,86,30.22,10.0,ENE,3.5,-,N/A,,Overcast,70,2012-10-28 09:15:00
4:35 AM,26.6,23.0,86,30.22,10.0,ENE,4.6,-,N/A,,Overcast,70,2012-10-28 09:35:00
4:55 AM,26.6,23.0,86,30.22,10.0,East,4.6,-,N/A,,Overcast,80,2012-10-28 09:55:00
5:15 AM,26.6,23.0,86,30.22,10.0,East,3.5,-,N/A,,Overcast,80,2012-10-28 10:15:00
5:35 AM,24.8,21.2,86,30.21,10.0,East,5.8,-,N/A,,Overcast,100,2012-10-28 10:35:00
5:55 AM,26.6,21.2,80,30.20,10.0,East,6.9,-,N/A,,Overcast,90,2012-10-28 10:55:00
6:15 AM,26.6,21.2,80,30.19,10.0,East,8.1,-,N/A,,Overcast,80,2012-10-28 11:15:00
6:35 AM,26.6,23.0,86,30.19,10.0,East,5.8,-,N/A,,Overcast,100,2012-10-28 11:35:00
6:55 AM,26.6,23.0,86,30.19,10.0,East,8.1,-,N/A,,Overcast,90,2012-10-28 11:55:00
7:15 AM,26.6,23.0,86,30.19,10.0,East,5.8,-,N/A,,Overcast,100,2012-10-28 12:15:00
7:35 AM,26.6,23.0,86,30.19,10.0,East,8.1,-,N/A,,Overcast,100,2012-10-28 12:35:00
7:55 AM,26.6,23.0,86,30.19,10.0,East,6.9,-,N/A,,Overcast,80,2012-10-28 12:55:00
8:35 AM,26.6,24.8,93,30.17,10.0,East,8.1,-,N/A,,Overcast,90,2012-10-28 13:35:00
8:55 AM,26.6,24.8,93,30.17,10.0,ESE,9.2,-,N/A,,Overcast,110,2012-10-28 13:55:00
9:15 AM,28.4,24.8,86,30.17,8.0,ESE,11.5,16.1,N/A,,Overcast,110,2012-10-28 14:15:00
9:35 AM,28.4,24.8,86,30.16,8.0,ESE,11.5,16.1,N/A,,Overcast,110,2012-10-28 14:35:00
9:55 AM,28.4,24.8,86,30.16,7.0,ESE,9.2,-,N/A,,Overcast,120,2012-10-28 14:55:00
10:15 AM,28.4,26.6,93,30.15,8.0,ESE,9.2,-,N/A,,Overcast,110,2012-10-28 15:15:00
10:35 AM,28.4,26.6,93,30.16,8.0,ESE,9.2,-,N/A,,Overcast,120,2012-10-28 15:35:00
10:55 AM,28.4,26.6,93,30.16,8.0,SE,13.8,-,N/A,,Overcast,130,2012-10-28 15:55:00
11:35 AM,30.2,26.6,86,30.15,3.0,SE,10.4,16.1,N/A,,Overcast,130,2012-10-28 16:35:00
11:55 AM,30.2,26.6,86,30.15,3.0,SE,12.7,18.4,N/A,,Overcast,130,2012-10-28 16:55:00
12:15 PM,32.0,28.4,87,30.13,2.5,SE,12.7,16.1,N/A,,Overcast,130,2012-10-28 17:15:00
12:35 PM,32.0,28.4,87,30.12,3.0,ESE,11.5,16.1,N/A,,Mostly Cloudy,120,2012-10-28 17:35:00
12:55 PM,32.0,28.4,87,30.11,5.0,ESE,11.5,-,N/A,,Overcast,120,2012-10-28 17:55:00
1:15 PM,32.0,28.4,87,30.11,9.0,SE,10.4,-,N/A,,Overcast,130,2012-10-28 18:15:00
1:35 PM,32.0,28.4,87,30.10,9.0,SE,12.7,-,N/A,,Overcast,130,2012-10-28 18:35:00
1:55 PM,32.0,28.4,87,30.10,10.0,SE,11.5,-,N/A,,Overcast,130,2012-10-28 18:55:00
2:15 PM,32.0,28.4,87,30.09,10.0,ESE,10.4,-,N/A,,Overcast,120,2012-10-28 19:15:00
2:35 PM,32.0,28.4,87,30.08,9.0,SE,8.1,-,N/A,,Overcast,130,2012-10-28 19:35:00
2:55 PM,32.0,28.4,87,30.08,8.0,SE,13.8,18.4,N/A,,Overcast,130,2012-10-28 19:55:00
3:15 PM,32.0,28.4,87,30.07,8.0,ESE,11.5,16.1,N/A,,Overcast,120,2012-10-28 20:15:00
3:35 PM,32.0,28.4,87,30.07,10.0,ESE,10.4,-,N/A,,Overcast,110,2012-10-28 20:35:00
3:55 PM,32.0,28.4,87,30.07,10.0,ESE,12.7,-,N/A,,Overcast,110,2012-10-28 20:55:00
4:15 PM,32.0,30.2,93,30.06,8.0,ESE,13.8,20.7,N/A,,Overcast,120,2012-10-28 21:15:00
4:35 PM,32.0,30.2,93,30.07,6.0,ESE,10.4,17.3,N/A,,Overcast,120,2012-10-28 21:35:00
4:55 PM,32.0,30.2,93,30.06,8.0,ESE,11.5,-,N/A,,Overcast,110,2012-10-28 21:55:00
5:15 PM,32.0,30.2,93,30.06,6.0,ESE,11.5,16.1,N/A,,Overcast,120,2012-10-28 22:15:00
5:35 PM,32.0,30.2,93,30.06,5.0,ESE,11.5,16.1,N/A,,Overcast,120,2012-10-28 22:35:00
5:55 PM,32.0,30.2,93,30.05,5.0,ESE,12.7,18.4,N/A,,Overcast,120,2012-10-28 22:55:00
6:15 PM,32.0,30.2,93,30.05,10.0,ESE,9.2,16.1,N/A,,Overcast,120,2012-10-28 23:15:00
6:35 PM,32.0,30.2,93,30.06,10.0,ESE,6.9,-,N/A,,Overcast,120,2012-10-28 23:35:00
6:55 PM,32.0,30.2,93,30.05,10.0,ESE,8.1,-,N/A,,Overcast,120,2012-10-28 23:55:00
7:15 PM,32.0,30.2,93,30.06,10.0,ESE,11.5,-,N/A,,Overcast,120,2012-10-29 00:15:00
7:55 PM,32.0,30.2,93,30.05,10.0,ESE,8.1,17.3,N/A,,Overcast,110,2012-10-29 00:55:00
8:15 PM,32.0,30.2,93,30.06,10.0,ESE,6.9,-,N/A,,Overcast,110,2012-10-29 01:15:00
8:35 PM,32.0,30.2,93,30.06,10.0,ESE,5.8,-,N/A,,Overcast,110,2012-10-29 01:35:00
8:55 PM,32.0,30.2,93,30.05,10.0,East,6.9,-,N/A,,Overcast,100,2012-10-29 01:55:00
9:15 PM,32.0,30.2,93,30.05,9.0,East,6.9,-,N/A,,Overcast,100,2012-10-29 02:15:00
9:35 PM,32.0,30.2,93,30.06,10.0,East,5.8,-,N/A,,Overcast,90,2012-10-29 02:35:00
10:15 PM,32.0,30.2,93,30.05,7.0,East,8.1,-,N/A,,Overcast,100,2012-10-29 03:15:00
10:35 PM,32.0,32.0,100,30.04,5.0,East,6.9,-,0.01,Snow,Light Snow,90,2012-10-29 03:35:00
10:55 PM,32.0,32.0,100,30.04,8.0,East,8.1,-,0.01,,Overcast,90,2012-10-29 03:55:00
11:15 PM,32.0,32.0,100,30.04,8.0,East,6.9,-,N/A,,Overcast,100,2012-10-29 04:15:00
11:35 PM,32.0,32.0,100,30.04,8.0,ESE,6.9,-,N/A,,Overcast,110,2012-10-29 04:35:00
11:55 PM,32.0,32.0,100,30.03,8.0,ESE,9.2,-,N/A,,Overcast,110,2012-10-29 04:55:00